STARLINK-34888

Last updated on Tue Sep 16 2025 00:02:08 GMT+0000 (Coordinated Universal Time)

1 65471U 25195P 25257.58315387 -.00674940 00000+0 -41096-2 0 9999 2 65471 53.1561 2.4067 0002121 18.8763 341.2337 15.78523902 2944
UTC large
Height (km)
Speed (km/s)
/
Latitude / Longitude
Inclination (degrees)
Orbital Period (minutes)
Azimuth
Elevation
Range (km)
Doppler Factor

Next 0 passes for location: London (51.5072 / 0.1276)

Sorry there are no passes over London.